Preview of NWS' New Version of Forecast
This preview is not operational and should not be used for support decisions.

Regional Weather Roundup (RWR)

Issued by National Weather Service (NWS)

                            
000
ASCA42 TJSJ 232310
RWRPR 
PUERTO RICO/U.S. VIRGIN ISLANDS HOURLY WEATHER ROUNDUP
NATIONAL WEATHER SERVICE SAN JUAN PR
700 PM AST SAT MAR 23 2019

PRZ001>002-007>008-010-240000-
PUERTO RICO
  
CITY           SKY/WX    TMP DP  RH WIND       PRES   REMARKS
SAN JUAN LMM   PTCLDY    79  70  73 E10       30.06R                  
AGUADILLA      CLOUDY    77  70  78 E10       30.07R                  
CEIBA          CLEAR     79  70  73 E6        30.07R                  
$$

VIZ001>002-240000-
U.S. VIRGIN ISLANDS
  
CITY           SKY/WX    TMP DP  RH WIND       PRES   REMARKS
CHARLOTTE AMA  PTCLDY    79  70  73 NE7       30.05R                  
CHRISTIANSTED  MOCLDY    79  70  73 E10       30.05R                  
$$

HOURLY WEATHER ROUNDUP FOR THE NEWS MEDIA
  
CITY           SKY/WX    TMP DP  RH WIND       PRES   REMARKS
ORLANDO        FAIR      73  47  39 E15       30.18R                  
NEW YORK       FAIR      46   9  22 W22G39    30.00R                  
NEWARK         FAIR      47   7  19 NW20G35   30.02R                  
CHICAGO        FAIR      51  24  34 S8        30.21F                  
HARTFORD       FAIR      42  24  49 NW15G31   29.81R                  
BOSTON         FAIR      45  20  36 NW20G33   29.79R                  
DALLAS         LGT RAIN  70  60  70 S12       29.98S                  
PHILADELPHIA   FAIR      51  10  19 W15       30.10R                  
LOS ANGELES    FAIR      63  50  62 W14       30.13F                  
WASHINGTON DC  FAIR      50  18  28 NW13      30.20R